sat.trackr.live / text

‹ back to catalog

STARLINK-6245

NORAD 57079 · 2023-088AH

PAYLOAD ACTIVE UNKNOWN

§ Identity

Operator
Country
US
Launch date
2023-06-22
Launch site
AFWTR
Launch vehicle
Mass (kg)
RCS (m²)

Purposes: comms

External: N2YO · Heavens-Above · Gunter

§ Orbital elements

Epoch: 2026-09-20T05:12:37.036512Z

Period
94.27 min
Inclination
43.0043°
Eccentricity
0.0001842
Mean motion
15.27556453 rev/d
Perigee alt
481.9 km
Apogee alt
484.4 km
Semi-major
6,861.3 km
B*
1.5516e-4
RAAN
77.2966°
Arg perigee
269.4139°
Mean anomaly
90.6501°
Rev number
18,025

§ Raw data

STARLINK-62451 57079U 23088AH  26263.21709533  .00004007  00000+0  15516-3 0  99992 57079  43.0043  77.2966 0001842 269.4139  90.6501 15.27556453180250

JSON: /api/v1/satellites/57079 · /tle

For live sub-satellite position, see the globe view (requires WebGL).

§ Visibility from observer

Set your observer location to see the next 7 days of passes ≥ 10°. The values pass through the URL so the page stays shareable.

No JS? Fill the form by hand. The geolocation button needs JavaScript.